Content
SEND FEEDBACK

Daily
Averages
Monthly
Summary
United States of America

SHASTA RETREAT, CALIFORNIA


Home > North America > United States > California
Elevation: 2954 feet     Latitude: 41 13N     Longitude: 122 16W

WEATHER
 
SELECT A DAY
Number of Records: 231,336;   Date Range: 1/1/95 - 7/26/14
 
SHARE

PRINT THIS DATA

[ ← Previous Day ]
WEATHER ALMANAC - JANUARY 31, 2013
[ Next Day → ]
[ °C ]   °F
Weather ElementAverageHighLow
Temperature35.9 °F48 °F (3:56 pm)27 °F (3:56 am)
Dewpoint27.6 °F33.1 °F (12:56 pm)21 °F (10:56 pm)
Humidity72.5 %85 % (3:56 am)52 % (3:56 pm)
Barometer30.39 in30.45 in (7:56 am)30.33 in (9:40 am)
Wind Speed3.5 mph8.1 mph (11:56 am)
Weather ElementAverage
Visibility9.1 mi
Wind DirectionESE (121.9 °)

Weather ElementTotal
Precipitation---
Heating Degree Days27.5 (Base 65)
Averaged from 21 records on January 31, 2013
WEATHER CONDITIONS BREAKOUT
WIND DIRECTION BREAKOUT
WEATHER BY HOUR - JANUARY 31, 2013
[ °C ]   °F
Local TimeTemperatureDewpointHumidityBarometerVisibilityWind DirectionWind SpeedGust SpeedPrecipitationEventsConditions
3:56 AM27.0 °F23.0 °F85 %30.43 in10.0 miVariable3.5 mphClear
4:56 AM28.0 °F24.1 °F85 %30.43 in10.0 miCalmClear
5:56 AM27.0 °F21.9 °F81 %30.43 in10.0 miCalmClear
6:56 AM28.0 °F23.0 °F81 %30.43 in10.0 miCalmClear
7:56 AM28.9 °F25.0 °F85 %30.45 in9.0 miCalmClear
9:40 AM37.4 °F32.0 °F81 %30.33 in10.0 miWNW (300°)6.9 mphScattered Clouds
9:56 AM37.9 °F32.0 °F79 %30.43 in10.0 miVariable5.8 mphClear
10:56 AM42.1 °F32.0 °F67 %30.41 in10.0 miNW (310°)5.8 mphClear
11:56 AM43.0 °F32.0 °F65 %30.40 in10.0 miWNW (300°)8.1 mphClear
12:56 PM46.0 °F33.1 °F61 %30.37 in10.0 miWNW (300°)8.1 mphClear
1:56 PM46.9 °F32.0 °F56 %30.35 in10.0 miWNW (290°)5.8 mphClear
2:56 PM46.9 °F30.9 °F54 %30.34 in10.0 miNW (320°)4.6 mphClear
3:56 PM48.0 °F30.9 °F52 %30.33 in10.0 miNW (310°)5.8 mphClear
4:56 PM43.0 °F32.0 °F65 %30.35 in10.0 miVariable3.5 mphClear
5:56 PM39.9 °F30.9 °F70 %30.36 in10.0 miVariable4.6 mphClear
6:56 PM37.0 °F30.0 °F76 %30.38 in10.0 miCalmClear
7:56 PM32.0 °F26.1 °F79 %30.39 in10.0 miCalmClear
8:56 PM30.0 °F23.0 °F75 %30.39 in7.0 miENE (70°)3.5 mphClear
9:56 PM28.9 °F21.9 °F75 %30.38 in3.0 miCalmHaze
10:56 PM28.9 °F21.0 °F72 %30.37 in7.0 miNorth (360°)3.5 mphClear
11:56 PM28.0 °F21.9 °F78 %30.38 in6.0 miVariable3.5 mphHaze
Hourly data recorded from KMHS, located miles away from Shasta Retreat, California







STORIES FROM OUR PARTNERS